EW8555 Weather Reports


Display with metric or nautical units.
time (UTC)temp
F
wind
direction
speed
MPH
gust
MPH
rain 1hr
in
rain 24hr
in
rain mn
in
humidity
%
barometer
mb
20200531163217 71 23 9.0 18.0 0.00 0.00 0.00 39 1018.4
20200531161558 72 5 8.0 23.0 0.00 0.00 0.00 38 1018.2
20200531160133 72 344 7.0 13.0 0.00 0.00 0.00 38 1018.1
20200531154625 72 31 7.0 14.0 0.00 0.00 0.00 39 1018.3
20200531153157 72 55 6.0 17.0 0.00 0.00 0.00 40 1018.4
20200531151610 72 38 9.0 14.0 0.00 0.00 0.00 40 1018.4
20200531150115 72 18 11.0 17.0 0.00 0.00 0.00 40 1018.4
20200531144611 71 323 8.0 17.0 0.00 0.00 0.00 39 1018.5
20200531143043 72 355 9.0 14.0 0.00 0.00 0.00 38 1018.5
20200531141611 72 5 9.0 18.0 0.00 0.00 0.00 39 1018.5
20200531140154 72 355 9.0 15.0 0.00 0.00 0.00 39 1018.6
20200531134559 71 5 7.0 13.0 0.00 0.00 0.00 39 1018.6
20200531133145 71 64 6.0 18.0 0.00 0.00 0.00 41 1018.7
20200531131628 71 40 6.0 12.0 0.00 0.00 0.00 41 1018.7
20200531130052 70 360 8.0 16.0 0.00 0.00 0.00 43 1018.8
20200531124615 69 323 6.0 17.0 0.00 0.00 0.00 45 1018.8
20200531123117 69 5 10.0 16.0 0.00 0.00 0.00 47 1018.9
20200531121535 68 329 5.0 18.0 0.00 0.00 0.00 50 1019.0
20200531120040 68 360 8.0 13.0 0.00 0.00 0.00 51 1019.1
20200531114531 66 355 5.0 16.0 0.00 0.00 0.00 54 1019.2
20200531111516 65 335 8.0 14.0 0.00 0.00 0.00 55 1019.7
20200531110034 64 350 8.0 15.0 0.00 0.00 0.00 56 1019.8
20200531104651 63 11 9.0 15.0 0.00 0.00 0.00 59 1019.8
20200531103339 61 324 5.0 15.0 0.00 0.00 0.00 63 1020.1
20200531101637 61 324 6.0 16.0 0.00 0.00 0.00 64 1020.1
20200531100324 60 343 5.0 14.0 0.00 0.00 0.00 66 1020.2
20200531094629 60 182 5.0 13.0 0.00 0.00 0.00 66 1020.1
20200531093140 59 298 7.0 13.0 0.00 0.00 0.00 67 1020.2
20200531091641 58 347 7.0 12.0 0.00 0.00 0.00 70 1020.4
20200531090121 57 5 4.0 11.0 0.00 0.00 0.00 72 1020.4
20200531084616 56 321 8.0 12.0 0.00 0.00 0.00 72 1020.5
20200531083114 56 340 7.0 11.0 0.00 0.00 0.00 74 1020.5
20200531080210 55 15 7.0 12.0 0.00 0.00 0.00 75 1020.6
20200531074612 55 13 6.0 12.0 0.00 0.00 0.00 75 1020.5
20200531073053 55 49 4.0 12.0 0.00 0.00 0.00 76 1020.5
20200531071619 54 360 3.0 11.0 0.00 0.00 0.00 77 1020.5
20200531070042 54 333 6.0 14.0 0.00 0.00 0.00 77 1020.5
20200531064533 54 319 2.0 9.0 0.00 0.00 0.00 78 1020.4
20200531063037 53 15 5.0 11.0 0.00 0.00 0.00 79 1020.4
20200531061540 52 347 4.0 13.0 0.00 0.00 0.00 80 1020.4
20200531060032 52 346 7.0 10.0 0.00 0.00 0.00 80 1020.3
20200531054528 52 333 4.0 11.0 0.00 0.00 0.00 81 1020.3
20200531053038 51 319 5.0 11.0 0.00 0.00 0.00 82 1020.3
20200531051519 51 327 3.0 8.0 0.00 0.00 0.00 83 1020.2
20200531050033 50 333 4.0 9.0 0.00 0.00 0.00 84 1020.2
20200531044607 49 334 3.0 6.0 0.00 0.00 0.00 85 1020.3
20200531043018 49 336 4.0 8.0 0.00 0.00 0.00 85 1020.2
20200531041625 49 334 3.0 9.0 0.00 0.00 0.00 85 1020.0
20200531040017 48 286 3.0 9.0 0.00 0.00 0.00 85 1020.0
20200531034520 48 324 4.0 9.0 0.00 0.00 0.00 85 1020.1
20200531033025 48 333 2.0 8.0 0.00 0.00 0.00 85 1020.1
20200531031516 48 321 3.0 8.0 0.00 0.00 0.00 85 1020.2
20200531030030 48 325 4.0 6.0 0.00 0.00 0.00 84 1020.3
20200531024505 48 332 3.0 6.0 0.00 0.00 0.00 83 1020.3
20200531023006 48 330 4.0 6.0 0.00 0.00 0.00 83 1020.5
20200531021504 49 330 4.0 9.0 0.00 0.00 0.00 82 1020.4
20200531020133 49 344 3.0 9.0 0.00 0.00 0.00 81 1020.6
20200531014652 49 332 5.0 9.0 0.00 0.00 0.00 80 1020.5
20200531013202 49 336 3.0 6.0 0.00 0.00 0.00 79 1020.6
20200531011628 50 333 4.0 6.0 0.00 0.00 0.00 78 1020.7
20200531010140 50 337 3.0 5.0 0.00 0.00 0.00 77 1020.8
20200531004557 50 328 2.0 6.0 0.00 0.00 0.00 75 1020.9
20200531003106 50 333 3.0 6.0 0.00 0.00 0.00 75 1021.0
20200531001749 50 332 2.0 6.0 0.00 0.00 0.00 75 1021.2
20200531000135 50 349 3.0 5.0 0.00 0.00 0.00 74 1021.3
20200530234637 50 329 3.0 5.0 0.00 0.00 0.00 73 1021.3
20200530233046 51 330 3.0 6.0 0.00 0.00 0.00 72 1021.3
20200530231549 51 325 2.0 5.0 0.00 0.00 0.00 71 1021.2
20200530230152 51 330 2.0 4.0 0.00 0.00 0.00 71 1021.2
20200530224557 52 331 2.0 4.0 0.00 0.00 0.00 70 1021.2
20200530223100 52 31 3.0 6.0 0.00 0.00 0.00 69 1021.2
20200530221532 52 15 4.0 6.0 0.00 0.00 0.00 69 1021.4
20200530220045 53 355 3.0 6.0 0.00 0.00 0.00 68 1021.4
20200530214611 53 360 3.0 6.0 0.00 0.00 0.00 68 1021.3
20200530213105 53 5 2.0 6.0 0.00 0.00 0.00 66 1021.3
20200530211546 53 341 2.0 5.0 0.00 0.00 0.00 65 1021.2
20200530210046 54 336 2.0 4.0 0.00 0.00 0.00 61 1021.2
20200530204552 54 5 3.0 5.0 0.00 0.00 0.00 59 1021.2
20200530203150 55 13 3.0 5.0 0.00 0.00 0.00 57 1021.1
20200530201540 55 349 3.0 5.0 0.00 0.00 0.00 56 1020.9
20200530200116 56 9 4.0 6.0 0.00 0.00 0.00 55 1020.9
20200530194553 57 338 2.0 4.0 0.00 0.00 0.00 53 1020.8
20200530193034 58 355 4.0 8.0 0.00 0.00 0.00 51 1020.8
20200530191529 59 19 3.0 6.0 0.00 0.00 0.00 50 1020.7
20200530190023 59 5 4.0 10.0 0.00 0.00 0.00 48 1020.7
20200530184529 60 5 4.0 10.0 0.00 0.00 0.00 48 1020.4
20200530183108 61 355 1.0 11.0 0.00 0.00 0.00 47 1020.5
20200530181537 61 348 7.0 12.0 0.00 0.00 0.00 45 1020.3
20200530180026 62 5 6.0 12.0 0.00 0.00 0.00 43 1020.4
20200530174536 62 5 7.0 17.0 0.00 0.00 0.00 42 1020.3
20200530173134 62 344 7.0 13.0 0.00 0.00 0.00 42 1020.4
20200530171617 62 5 8.0 14.0 0.00 0.00 0.00 43 1020.4
20200530170026 62 19 7.0 13.0 0.00 0.00 0.00 42 1020.5
20200530164535 62 57 5.0 13.0 0.00 0.00 0.00 43 1020.6